Regional Weather Roundup
Issued by NWS

Home | Current Version | Previous Version | Text Only | Print | Product List | Glossary On
Versions: 1 2 3 4 5 6 7 8 9 10 11 12 13 14 15 16 17 18 19 20 21 22 23 24 25 26 27 28 29 30 31 32 33 34 35 36 37 38 39 40 41 42 43 44 45 46 47 48 49 50
000
ASHW40 PHFO 281532
RWRHI

WEATHER ROUNDUP FOR HAWAII
NATIONAL WEATHER SERVICE HONOLULU HI
500 AM HST FRI JUL 28 2017

THIS IS AN AUTOMATED REPORT THAT HAS NOT BEEN QUALITY CONTROLLED.

NOTE..."FAIR" INDICATES FEW OR NO CLOUDS BELOW 12,000 FEET WITH NO
SIGNIFICANT WEATHER AND/OR OBSTRUCTIONS TO VISIBILITY.

* - THESE SITES REPORT LIMITED FIELDS
# - BUOY DATA PROVIDED BY PACIFIC ISLANDS OCEAN OBSERVING SYSTEM.

HIZ001>004-281600-
KAUAI-NIIHAU-

CITY           SKY/WX    TMP DP  RH WIND       PRES   REMARKS
LIHUE APT      CLOUDY    78  73  84 NE10      29.99S
PORT ALLEN*      N/A     75 N/A N/A E5          N/A
POIPU*           N/A     75 N/A N/A NE3G9       N/A
PRINCEVILLE*     N/A     73 N/A N/A S2          N/A
KOKOLE POINT*  NOT AVBL
MOLOAA DAIRY*    N/A     75  72  88 E1          N/A
WAIMEA HTS*    NOT AVBL
PUU OPAE*      NOT AVBL
PUU LUA*       NOT AVBL
MAKAHA RIDGE*    N/A     70  64  83 S1          N/A
$$

HIZ005>011-281600-
OAHU-

CITY           SKY/WX    TMP DP  RH WIND       PRES   REMARKS
HONOLULU       PTCLDY    76  69  79 NE3       29.96S
KALAELOA       CLEAR     75  67  76 NE3       29.97S
KANEOHE MCB    RAIN      77  70  79 E6        29.95
WHEELER FIELD  FAIR      70  68  92 CALM      29.97S
BELLOWS*         N/A    N/A N/A N/A NE9         N/A
KAHUKU*          N/A    N/A N/A N/A NE5         N/A
WHEELER*       NOT AVBL
WAIANAE HARBOR NOT AVBL
DILLINGHAM*      N/A     70  66  88 CALM        N/A
KAHUKU TRN*      N/A     84  82  94 W3G9        N/A  HX 101
KAWAILOA*        N/A     72  66  83 E5          N/A
KII*             N/A     79  72  78 E10         N/A
MAKUA RANGE*     N/A     73  63  68 W5G12       N/A
OAHU FOREST NW NOT AVBL
SCHOFIELD BRK*   N/A     72  68  88 MISG        N/A
SCHOFIELD S*   NOT AVBL
WAIANAE VLY*   NOT AVBL
KUAOKALA*      NOT AVBL
HONOULIUULI*   NOT AVBL
MOKUOLOE IS*   NOT AVBL
PALEHUA*       NOT AVBL
WAIAWA PHB*    NOT AVBL
$$

HIZ012>013-281600-
MOLOKAI-

CITY           SKY/WX    TMP DP  RH WIND       PRES   REMARKS
MOLOKAI AIRPT  MOCLDY    77  70  79 N9        29.98R
KALAUPAPA      NOT AVBL
MAKAPULAPAI*     N/A     75  70  83 E7G17       N/A
MOLOKAI 1*     NOT AVBL
PUU ALII*        N/A     61  61 100 N2G9        N/A
$$

HIZ016-281600-
KAHOOLAWE-

CITY           SKY/WX    TMP DP  RH WIND       PRES   REMARKS
KAHOOLAWE*     NOT AVBL
HAKIOAWA*        N/A     72  69  91 MISG      30.39S
HONOKANAIA*      N/A     75  67  76 N5G16     29.89S
KANELOA*         N/A     75  70  83 NE8G18    30.01F
KEALIALALO*    NOT AVBL
LUA MAKIKA*    NOT AVBL
$$

HIZ014>015-281600-
LANAI-

CITY           SKY/WX    TMP DP  RH WIND       PRES   REMARKS
LANAI CITY     FAIR      70  67  90 NE14      30.02R
LANAI 1*       NOT AVBL
$$

HIZ017>028-281600-
MAUI-

CITY           SKY/WX    TMP DP  RH WIND       PRES   REMARKS
KAHULUI        CLOUDY    77  68  73 E5        29.95S
KAPALUA-W MAUI NOT AVBL
HANA AIRPORT   LGT RAIN  73  72  94 NE2       30.00S
HANA*          NOT AVBL
HALEAKALA SUMM   N/A     46  41  81 E23G36      N/A
MAALAEA BAY*     N/A     77 N/A N/A VRB13G21    N/A
HALEAKALA*     NOT AVBL
KAUPO GAP*     NOT AVBL
KULA 1*          N/A     52  45  76 NE3         N/A
$$

HIZ023>026-281600-
BIG ISLAND OF HAWAII COAST AND LOWER SLOPES-

CITY           SKY/WX    TMP DP  RH WIND       PRES   REMARKS
KAILUA KONA    CLEAR     73  66  78 NE6       29.93R
HILO           PTCLDY    70  62  76 SW7       29.96R
HONOKAA*         N/A     70 N/A N/A VRB1        N/A
KAWAIHAE MWT*    N/A     75 N/A N/A NE5         N/A
KAWAIHAE*        N/A     75 N/A N/A NE3       29.94R
SOUTH POINT*     N/A     70 N/A N/A W6          N/A
UPOLU AIRPORT* NOT AVBL
KAMUELA*       NOT AVBL
HAKALAU*         N/A     46  41  81 SW5         N/A
KALOKO-HONOKO*   N/A     70  66  88 NE3       29.93R
PALI 2*          N/A     68  59  73 S12G20      N/A
KEALAKOMO*       N/A     81  63  54 NW18G26     N/A
KAUPULEHU*     NOT AVBL
KAPAPALA*        N/A     61  58  91 N3          N/A
LOWER KAHUKU*    N/A     59  57  94 N1          N/A
PUHE CS*         N/A     73  66  78 NE3         N/A
PUHO CS*         N/A     72  60  64 E3          N/A
PTA KEAMUKU*   NOT AVBL
WAIKOLOA*      NOT AVBL
$$

HIZ027>028-281600-
BIG ISLAND OF HAWAII INTERIOR AND SUMMMITS-

CITY           SKY/WX    TMP DP  RH WIND       PRES   REMARKS
BRADSHAW FIELD CLOUDY    47  36  65 CALM      30.28S
MK VISITOR CEN   N/A     52  27  37 NE10        N/A
MAUNA KEA*       N/A     36  -9  14 E12         N/A  WCI  27
MAUNA LOA*       N/A    N/A N/A N/A MISG        N/A
MAUNA LOA 1*   NOT AVBL
PTA KIPUKA*      N/A     48  48 100 E3          N/A
PTA RANGE 17*    N/A     72  66  83 E3          N/A
PTA WEST*        N/A     52  48  87 SE9         N/A
NENE CABIN*      N/A     52  45  76 NE7         N/A
AHUMOA*        NOT AVBL
PTA PORTABLE*  NOT AVBL
PUU MALI*        N/A     55  37  50 S7          N/A
$$

HIC003-281600-
NORTHWEST ISLANDS-

CITY           SKY/WX    TMP DP  RH WIND       PRES   REMARKS
MIDWAY ISLAND  MOCLDY    79  75  89 E17       30.10S
MIDWAY NOS*      N/A     79 N/A N/A MISG      30.08F
FRENCH FRIGATE NOT AVBL
$$

PHZ110>124-180-281600-
BUOY REPORTS

STATION/POSITION TIME  TEMP    WIND        PRES    WAVE   SWELL
                       AIR SEA DIR/SP/G            HT/PER HT/DIR
                 (UTC) (F)     (DEG/KT/KT) (MB)    (FT/S) (FT/D)
BUOY 51001       1510   79 81   70/ 12/ 14 1017.0
BUOY 51101       1450   79 81   60/ 12/ 14 1017.3S   5/10   5/120
BUOY 51100       NOT AVBL
BUOY 51002       1510   79 80   50/ 12/ 14 1013.0
BUOY 51003       1450   80 82   30/ 12/ 14 1013.5S   6/ 8   5/ 80
BUOY 51004       1450      79   60/ 14/ 17 1012.2R   7/10   5/ 80
WAIMEA BAY#      1502      79                N/A     4/ 7   2/ 30
MOKAPU POINT#    1504      80                N/A     6/ 8   2/110
LANAI#           NOT AVBL
BARBERS PT 2#    NOT AVBL
PAUWELA#         1509      80                N/A     5/10   2/ 90
HILO#            1457      80                N/A     7/ 9   2/110
KANEOHE BAY#     1455      79                N/A     5/ 9   2/ 70
KANEOHE BAY 2#   NOT AVBL
HANALEI#         1452      80                N/A     5/ 8   2/ 70
KAHULUI HARBOR   1500   78 81   10/  9/ 11 1014.5
HONOLULU HARBOR  1500   77 81   CALM  /  2 1015.3
PEARL HARBOR#    1500      81                N/A     2/15   2/170
KILO NALU        NOT AVBL
HILO HARBOR      1500   72 80  220/  3/  4 1014.0
MOKUOLOE         1436   76 82   60/  6/  9 1014.9S
NAWILIWILI       1500   74     250/  5/  6 1015.0
WHOTS BUOY       NOT AVBL
BUOY 51028       NOT AVBL
$$

......................KEY........................................
  SKY/WX - SKY CONDITIONS/PRESENT WEATHER
  TMP    - TEMPERATURE IN FAHRENHEIT
  DWPT   - DEWPOINT IN FAHRENHEIT
  RH     - RELATIVE HUMIDITY IN PERCENT
  WIND   - DIRECTION AND SPEED /MPH FOR ISLANDS...KTS FOR BUOYS/
  PRES   - MEAN SEA LEVEL PRESSURE IN INCHES OF HG
  VSB    - VISIBILITY IN MILES
  HX     - HEAT INDEX
  WCI    - WIND CHILL INDEX
  VRB    - VARIABLE WIND DIRECTION
  N/A    - NOT AVAILABLE




USA.gov is the U.S. government's official web portal to all federal, state and local government web resources and services.